Location: Rounton
(54.4000°N, 1.3500°W)
Time: 02:34:55
(UTC+00:00)

SR - Pass Details

Date: 09 December 2021
Orbit: 582 x 872 km, 66.7° (Epoch: 26 January)

Event Time Altitude Azimuth Distance (km) Brightness Sun altitude
Exits shadow 04:09:25 17° 51° (NE) 1,515 ? -34.0°
Drops below altitude 10° 04:11:07 10° 71° (ENE) 1,945 ? -33.8°
Sets 04:13:52 0° 88° (E) 2,879 ? -33.4°
